DW3838 Weather Reports


Display with metric or nautical units.
time (UTC)temp
F
wind
direction
speed
MPH
gust
MPH
rain 1hr
in
rain 24hr
in
rain mn
in
humidity
%
barometer
mb
20260509234519 76 239 2.0 8.0 0.00 0.00 0.00 58 1012.8
20260509233023 77 214 4.0 10.0 0.00 0.00 0.00 55 1013.0
20260509231507 77 203 1.0 7.0 0.00 0.00 0.00 56 1013.0
20260509230006 76 196 4.0 8.0 0.00 0.00 0.00 56 1013.2
20260509224605 76 220 2.0 6.0 0.00 0.00 0.00 59 1013.4
20260509223058 75 114 0.0 9.0 0.00 0.00 0.00 57 1013.6
20260509221559 73 200 1.0 10.0 0.00 0.00 0.00 57 1013.9
20260509220054 74 214 5.0 9.0 0.00 0.00 0.00 56 1014.0
20260509214552 75 178 1.0 9.0 0.00 0.00 0.00 59 1014.2
20260509213049 74 178 1.0 7.0 0.00 0.00 0.00 60 1014.4
20260509211555 74 210 3.0 11.0 0.00 0.00 0.00 56 1014.5
20260509204544 74 176 1.0 7.0 0.00 0.00 0.00 61 1014.6
20260509203045 74 178 0.0 7.0 0.00 0.00 0.00 64 1014.8
20260509201548 73 172 2.0 9.0 0.00 0.00 0.00 65 1014.9
20260509200035 72 236 1.0 10.0 0.00 0.00 0.00 67 1015.1
20260509194531 71 202 1.0 6.0 0.00 0.00 0.00 69 1015.2
20260509193030 69 190 1.0 7.0 0.00 0.00 0.00 71 1015.3
20260509191528 71 112 1.0 8.0 0.00 0.00 0.00 71 1015.4
20260509190032 70 211 0.0 4.0 0.00 0.00 0.00 71 1015.5
20260509184533 70 201 1.0 5.0 0.00 0.00 0.00 68 1015.6
20260509183030 70 186 0.0 4.0 0.00 0.00 0.00 68 1015.7
20260509181520 68 202 0.0 5.0 0.00 0.00 0.00 70 1015.6
20260509180020 68 169 0.0 5.0 0.00 0.00 0.00 71 1015.7
20260509174517 67 142 0.0 0.0 0.00 0.00 0.00 72 1015.8
20260509173015 65 138 0.0 1.0 0.00 0.00 0.00 78 1015.8
20260509171509 62 345 0.0 2.0 0.00 0.00 0.00 80 1015.8
20260509170002 60 151 0.0 0.0 0.00 0.00 0.00 85 1016.0
20260509164558 56 143 0.0 0.0 0.00 0.00 0.00 86 1015.9
20260509163104 57 144 0.0 0.0 0.00 0.00 0.00 92 1015.9
20260509161557 57 92 0.0 0.0 0.00 0.00 0.00 93 1016.1
20260509160052 56 238 0.0 0.0 0.00 0.00 0.00 94 1016.0
20260509154600 55 153 0.0 0.0 0.00 0.00 0.00 94 1016.1
20260509153046 54 169 0.0 0.0 0.00 0.00 0.00 94 1016.0
20260509151547 53 169 0.0 0.0 0.00 0.00 0.00 94 1016.1
20260509150043 52 167 0.0 0.0 0.00 0.00 0.00 94 1016.0
20260509144536 51 157 0.0 0.0 0.00 0.00 0.00 94 1015.8
20260509143043 50 157 0.0 0.0 0.00 0.00 0.00 94 1015.8
20260509141532 49 226 0.0 0.0 0.00 0.00 0.00 94 1015.8
20260509140029 49 226 0.0 0.0 0.00 0.00 0.00 93 1015.8
20260509134526 48 226 0.0 0.0 0.00 0.01 0.00 93 1015.7
20260509133027 48 226 0.0 0.0 0.00 0.01 0.00 93 1015.4
20260509131526 47 226 0.0 0.0 0.00 0.01 0.00 93 1015.5
20260509130029 47 226 0.0 0.0 0.00 0.01 0.00 93 1015.5
20260509124537 47 222 0.0 0.0 0.00 0.01 0.00 93 1015.3
20260509123026 48 222 0.0 0.0 0.00 0.01 0.00 93 1015.3
20260509121535 47 222 0.0 0.0 0.00 0.01 0.00 93 1015.4
20260509120024 47 222 0.0 0.0 0.00 0.01 0.00 92 1015.4
20260509114545 47 222 0.0 0.0 0.00 0.01 0.00 92 1015.4
20260509113022 47 222 0.0 0.0 0.00 0.01 0.00 92 1015.5
20260509111521 47 186 0.0 0.0 0.00 0.01 0.00 92 1015.5
20260509110021 47 186 0.0 0.0 0.00 0.01 0.00 92 1015.5
20260509104521 47 186 0.0 0.0 0.00 0.01 0.00 92 1015.5
20260509103018 47 186 0.0 0.0 0.00 0.01 0.00 92 1015.4
20260509101518 48 186 0.0 0.0 0.00 0.01 0.00 92 1015.4
20260509100017 48 186 0.0 0.0 0.00 0.01 0.00 92 1015.4
20260509094522 48 186 0.0 0.0 0.00 0.01 0.00 91 1015.4
20260509093016 48 186 0.0 0.0 0.00 0.01 0.00 91 1015.3
20260509091514 47 186 0.0 0.0 0.00 0.01 0.00 91 1015.4
20260509090033 47 186 0.0 0.0 0.00 0.01 0.00 91 1015.5
20260509084511 48 186 0.0 0.0 0.00 0.01 0.00 90 1015.6
20260509083025 48 186 0.0 0.0 0.00 0.01 0.00 90 1015.7
20260509081509 48 186 0.0 0.0 0.00 0.01 0.00 90 1015.7
20260509080011 48 186 0.0 0.0 0.00 0.01 0.00 90 1015.7
20260509074513 48 186 0.0 0.0 0.00 0.01 0.00 89 1015.8
20260509073005 48 186 0.0 0.0 0.00 0.01 0.00 89 1015.8
20260509071505 48 186 0.0 0.0 0.00 0.01 0.00 89 1015.9
20260509070101 49 186 0.0 0.0 0.00 0.01 0.00 89 1016.0
20260509064558 49 186 0.0 0.0 0.00 0.01 0.01 89 1016.0
20260509063121 49 186 0.0 0.0 0.00 0.01 0.01 88 1015.9
20260509061601 50 186 0.0 0.0 0.00 0.01 0.01 88 1016.1
20260509060058 50 186 0.0 0.0 0.00 0.01 0.01 88 1016.0
20260509054557 51 186 0.0 0.0 0.00 0.01 0.01 88 1016.1
20260509053056 52 186 0.0 0.0 0.00 0.01 0.01 88 1016.2
20260509051558 53 186 0.0 0.0 0.00 0.01 0.01 87 1016.1
20260509044559 55 186 0.0 0.0 0.00 0.01 0.01 87 1016.1
20260509043058 56 186 0.0 0.0 0.00 0.01 0.01 86 1015.9
20260509041553 57 186 0.0 0.0 0.00 0.01 0.01 86 1015.8
20260509040055 58 186 0.0 0.0 0.00 0.01 0.01 85 1015.7
20260509034601 59 186 0.0 0.0 0.00 0.01 0.01 84 1015.5
20260509033105 60 186 0.0 0.0 0.00 0.01 0.01 82 1015.5
20260509031551 61 186 0.0 0.0 0.00 0.01 0.01 81 1015.5
20260509030050 62 186 0.0 0.0 0.00 0.01 0.01 79 1015.2
20260509024559 63 163 0.0 0.0 0.00 0.01 0.01 78 1015.2
20260509023049 64 163 0.0 0.0 0.00 0.01 0.01 76 1015.2
20260509021550 65 163 0.0 0.0 0.00 0.01 0.01 75 1015.1
20260509020049 65 163 0.0 0.0 0.00 0.01 0.01 74 1015.1
20260509014547 66 184 0.0 0.0 0.00 0.01 0.01 73 1015.1
20260509013050 67 184 0.0 4.0 0.00 0.01 0.01 71 1015.2
20260509011549 68 173 0.0 4.0 0.00 0.01 0.01 70 1015.3
20260509010044 69 190 0.0 2.0 0.00 0.01 0.01 68 1015.3
20260509004554 70 192 1.0 5.0 0.00 0.01 0.01 68 1015.4
20260509003045 71 184 0.0 6.0 0.00 0.01 0.01 67 1015.5
20260509001541 71 180 0.0 3.0 0.00 0.01 0.01 66 1015.6
20260509000044 71 190 0.0 2.0 0.00 0.01 0.01 67 1015.7